This demonstration page uses our WeatherBlox Daily Observations layout. Learn more.

Left ArrowRight Arrow

Hourly Observations for March 30, 2020

Temp ( °F °C ) Dew Point ( °F °C ) Humidity (%) Winds ( mph kmh ) Pressure ( in mb ) Visibility ( mi km ) Precip ( " mm )
12:53 am 00:53 Clear 41 5 28 -2.2 60 60 SW 12 19 29.81 1010 10 16 N/A
1:53 am 01:53 Clear 34 1.1 27 -2.8 76 76 SW 12 19 29.84 1011 10 16 N/A
2:53 am 02:53 Mostly Clear 37 2.8 28 -2.2 70 70 WSW 8 13 29.86 1011 10 16 N/A
3:53 am 03:53 Clear 37 2.8 29 -1.7 73 73 SW 10 17 29.87 1012 10 16 N/A
4:53 am 04:53 Mostly Clear 37 2.8 29 -1.7 73 73 SW 13 20 29.88 1012 10 16 N/A
5:53 am 05:53 Clear 36 2.2 29 -1.7 76 76 WSW 6 9 29.91 1013 10 16 N/A
6:53 am 06:53 Clear 35 1.7 28 -2.2 76 76 SW 9 15 29.92 1013 10 16 N/A
7:53 am 07:53 Sunny 34 1.1 28 -2.2 79 79 SW 7 11 29.94 1014 10 16 N/A
8:53 am 08:53 Sunny 42 5.6 31 -0.6 65 65 SW 7 11 29.94 1014 10 16 N/A
9:53 am 09:53 Sunny 48 8.9 28 -2.2 46 46 SW 13 20 29.93 1014 10 16 N/A
10:53 am 10:53 Sunny 52 11.1 27 -2.8 38 38 SW 13 20 29.91 1013 10 16 N/A
11:53 am 11:53 Sunny 53 11.7 24 -4.4 32 32 SSW 15 24 29.90 1013 10 16 N/A
12:53 pm 12:53 Sunny 58 14.4 25 -3.9 28 28 SW 16 26 29.85 1011 10 16 N/A
1:53 pm 13:53 Sunny 60 15.6 28 -2.2 30 30 SSW 16 26 29.83 1010 10 16 N/A
2:53 pm 14:53 Mostly Cloudy 59 15 26 -3.3 28 28 S 10 17 29.79 1009 10 16 N/A
3:53 pm 15:53 Cloudy 58 14.4 27 -2.8 31 31 SW 14 22 29.78 1008 10 16 N/A
4:53 pm 16:53 Mostly Cloudy 60 15.6 23 -5 24 24 SW 15 24 29.76 1008 10 16 0.00 0.00
5:53 pm 17:53 Mostly Cloudy 58 14.4 26 -3.3 29 29 SW 14 22 29.75 1008 10 16 N/A
6:49 pm 18:49 Partly Cloudy 55 13 28 -2 36 36 S 14 22 29.71 1006 10 16 N/A
6:53 pm 18:53 Partly Cloudy 55 12.8 28 -2.2 35 35 S 10 17 29.77 1008 10 16 N/A
7:53 pm 19:53 Mostly Clear 51 10.6 30 -1.1 44 44 S 9 15 29.77 1008 10 16 N/A
8:53 pm 20:53 Mostly Cloudy 48 8.9 30 -1.1 50 50 SSE 8 13 29.77 1008 10 16 N/A
9:53 pm 21:53 Clear 44 6.7 29 -1.7 55 55 SSW 7 11 29.76 1008 10 16 N/A
10:53 pm 22:53 Mostly Cloudy 44 6.7 31 -0.6 60 60 W 15 24 29.77 1008 10 16 N/A
11:53 pm 23:53 Cloudy 43 6.1 33 0.6 68 68 SSW 8 13 29.76 1008 10 16 N/A

Powered by AerisWeather